When you browse on this site, cookies collect data to enhance your experience and personalize the content and advertising you see.
Visit our Privacy Policy to learn more. By continuing to use the site, you agree to this use of cookies and data.

Stündliche Wetter Darwin

Heute, 9 Juli, Donnerstag

Zeit Temperatur Niederschläge Wind Luftdruck Luftfeuchtigkeit
00:00 +20°C° 0 mm 3 m/S 759 mmHg 58%
01:00 +20°C° 0 mm 3 m/S 759 mmHg 57%
02:00 +19°C° 0 mm 4 m/S 759 mmHg 56%
03:00 +19°C° 0 mm 4 m/S 759 mmHg 52%
04:00 +19°C° 0 mm 4 m/S 759 mmHg 58%
05:00 +18°C° 0 mm 4 m/S 759 mmHg 64%
06:00 +16°C° 0 mm 5 m/S 759 mmHg 70%
07:00 +19°C° 0 mm 5 m/S 759 mmHg 65%
08:00 +21°C° 0 mm 5 m/S 760 mmHg 59%
09:00 +25°C° 0 mm 5 m/S 760 mmHg 54%
10:00 +28°C° 0 mm 5 m/S 760 mmHg 46%
11:00 +30°C° 0 mm 4 m/S 759 mmHg 38%
12:00 +34°C° 0 mm 4 m/S 759 mmHg 30%
13:00 +34°C° 0 mm 4 m/S 758 mmHg 30%
14:00 +35°C° 0 mm 5 m/S 757 mmHg 30%
15:00 +36°C° 0 mm 5 m/S 757 mmHg 29%
16:00 +33°C° 0 mm 4 m/S 757 mmHg 39%
17:00 +30°C° 0 mm 3 m/S 757 mmHg 48%
18:00 +27°C° 0 mm 2 m/S 757 mmHg 57%
19:00 +26°C° 0 mm 2 m/S 757 mmHg 61%
20:00 +25°C° 0 mm 1 m/S 758 mmHg 66%
21:00 +24°C° 0 mm 1 m/S 758 mmHg 70%
22:00 +23°C° 0 mm 1 m/S 759 mmHg 71%
23:00 +23°C° 0 mm 1 m/S 759 mmHg 72%

Morgen, 10 Juli, Freitag

Zeit Temperatur Niederschläge Wind Luftdruck Luftfeuchtigkeit
00:00 +22°C° 0 mm 1 m/S 759 mmHg 73%
01:00 +21°C° 0 mm 2 m/S 759 mmHg 73%
02:00 +21°C° 0 mm 2 m/S 759 mmHg 73%
03:00 +21°C° 0 mm 3 m/S 759 mmHg 73%
04:00 +20°C° 0 mm 3 m/S 759 mmHg 77%
05:00 +20°C° 0 mm 3 m/S 759 mmHg 82%
06:00 +19°C° 0 mm 4 m/S 759 mmHg 87%
07:00 +21°C° 0 mm 4 m/S 759 mmHg 77%
08:00 +25°C° 0 mm 4 m/S 759 mmHg 68%
09:00 +27°C° 0 mm 4 m/S 760 mmHg 59%
10:00 +30°C° 0 mm 4 m/S 759 mmHg 52%
11:00 +33°C° 0 mm 4 m/S 759 mmHg 44%
12:00 +36°C° 0 mm 3 m/S 759 mmHg 36%
13:00 +36°C° 0 mm 4 m/S 758 mmHg 35%
14:00 +37°C° 0 mm 4 m/S 757 mmHg 35%
15:00 +38°C° 0 mm 4 m/S 756 mmHg 34%
16:00 +35°C° 0 mm 4 m/S 757 mmHg 42%
17:00 +33°C° 0 mm 3 m/S 757 mmHg 50%
18:00 +29°C° 0 mm 2 m/S 757 mmHg 58%
19:00 +28°C° 0 mm 2 m/S 757 mmHg 63%
20:00 +27°C° 0 mm 2 m/S 758 mmHg 69%
21:00 +26°C° 0 mm 2 m/S 758 mmHg 74%
22:00 +25°C° 0 mm 2 m/S 759 mmHg 75%
23:00 +24°C° 0 mm 2 m/S 759 mmHg 77%

übermorgen, 11 Juli, Samstag

Zeit Temperatur Niederschläge Wind Luftdruck Luftfeuchtigkeit
00:00 +24°C° 0 mm 2 m/S 759 mmHg 78%
01:00 +24°C° 0 mm 3 m/S 759 mmHg 74%
02:00 +24°C° 0 mm 3 m/S 758 mmHg 70%
03:00 +23°C° 0 mm 4 m/S 758 mmHg 66%
04:00 +22°C° 0 mm 4 m/S 758 mmHg 70%
05:00 +21°C° 0 mm 4 m/S 758 mmHg 74%
06:00 +21°C° 0 mm 4 m/S 758 mmHg 78%
07:00 +23°C° 0 mm 5 m/S 759 mmHg 68%
08:00 +27°C° 0 mm 5 m/S 759 mmHg 58%
09:00 +30°C° 0 mm 6 m/S 760 mmHg 48%
10:00 +33°C° 0 mm 5 m/S 759 mmHg 44%
11:00 +34°C° 0 mm 5 m/S 758 mmHg 40%
12:00 +36°C° 0 mm 4 m/S 758 mmHg 36%
13:00 +37°C° 0 mm 4 m/S 757 mmHg 36%
14:00 +37°C° 0 mm 4 m/S 756 mmHg 36%
15:00 +38°C° 0 mm 4 m/S 756 mmHg 35%
16:00 +35°C° 0 mm 3 m/S 756 mmHg 44%
17:00 +33°C° 0 mm 3 m/S 756 mmHg 53%
18:00 +30°C° 0 mm 2 m/S 756 mmHg 61%
19:00 +29°C° 0 mm 2 m/S 756 mmHg 65%
20:00 +28°C° 0 mm 2 m/S 757 mmHg 68%
21:00 +27°C° 0 mm 2 m/S 758 mmHg 71%
22:00 +27°C° 0 mm 1 m/S 758 mmHg 70%
23:00 +27°C° 0 mm 1 m/S 758 mmHg 69%

12 Juli, Sonntag

Zeit Temperatur Niederschläge Wind Luftdruck Luftfeuchtigkeit
00:00 +27°C° 0 mm 1 m/S 758 mmHg 68%
01:00 +26°C° 0 mm 1 m/S 758 mmHg 69%
02:00 +26°C° 0 mm 1 m/S 758 mmHg 71%
03:00 +25°C° 0 mm 1 m/S 757 mmHg 73%
04:00 +24°C° 0 mm 2 m/S 758 mmHg 73%
05:00 +24°C° 0 mm 3 m/S 758 mmHg 73%
06:00 +22°C° 0 mm 3 m/S 758 mmHg 73%
07:00 +25°C° 0 mm 4 m/S 758 mmHg 65%
08:00 +27°C° 0 mm 4 m/S 759 mmHg 57%
09:00 +28°C° 0 mm 5 m/S 759 mmHg 49%
10:00 +32°C° 0 mm 5 m/S 759 mmHg 44%
11:00 +34°C° 0 mm 4 m/S 759 mmHg 38%
12:00 +36°C° 0 mm 4 m/S 758 mmHg 33%
13:00 +36°C° 0 mm 4 m/S 758 mmHg 33%
14:00 +37°C° 0 mm 3 m/S 757 mmHg 32%
15:00 +37°C° 0 mm 3 m/S 756 mmHg 32%
16:00 +36°C° 0 mm 2 m/S 756 mmHg 36%
17:00 +34°C° 0 mm 2 m/S 756 mmHg 40%
18:00 +31°C° 0 mm 1 m/S 756 mmHg 44%
19:00 +30°C° 0 mm 2 m/S 757 mmHg 43%
20:00 +29°C° 0 mm 2 m/S 758 mmHg 43%
21:00 +28°C° 0 mm 3 m/S 759 mmHg 42%
22:00 +28°C° 0 mm 4 m/S 759 mmHg 41%
23:00 +27°C° 0 mm 5 m/S 759 mmHg 40%

13 Juli, Montag

Zeit Temperatur Niederschläge Wind Luftdruck Luftfeuchtigkeit
00:00 +26°C° 0 mm 6 m/S 759 mmHg 39%
01:00 +24°C° 0 mm 6 m/S 759 mmHg 41%
02:00 +24°C° 0 mm 7 m/S 759 mmHg 44%
03:00 +23°C° 0 mm 7 m/S 759 mmHg 46%
04:00 +22°C° 0 mm 7 m/S 759 mmHg 46%
05:00 +22°C° 0 mm 7 m/S 760 mmHg 46%
06:00 +21°C° 0 mm 7 m/S 760 mmHg 45%
07:00 +22°C° 0 mm 7 m/S 760 mmHg 40%
08:00 +24°C° 0 mm 8 m/S 761 mmHg 35%
09:00 +26°C° 0 mm 8 m/S 761 mmHg 30%
10:00 +28°C° 0 mm 7 m/S 761 mmHg 28%
11:00 +30°C° 0 mm 6 m/S 760 mmHg 26%
12:00 +33°C° 0 mm 5 m/S 760 mmHg 23%
13:00 +34°C° 0 mm 5 m/S 759 mmHg 23%
14:00 +35°C° 0 mm 4 m/S 758 mmHg 23%
15:00 +36°C° 0 mm 4 m/S 757 mmHg 22%
16:00 +34°C° 0 mm 3 m/S 758 mmHg 27%
17:00 +31°C° 0 mm 2 m/S 758 mmHg 31%
18:00 +29°C° 0 mm 1 m/S 758 mmHg 36%
19:00 +28°C° 0 mm 2 m/S 758 mmHg 36%
20:00 +26°C° 0 mm 2 m/S 759 mmHg 37%
21:00 +25°C° 0 mm 2 m/S 760 mmHg 37%
22:00 +25°C° 0 mm 4 m/S 760 mmHg 38%
23:00 +23°C° 0 mm 5 m/S 760 mmHg 38%

14 Juli, Dienstag

Zeit Temperatur Niederschläge Wind Luftdruck Luftfeuchtigkeit
00:00 +23°C° 0 mm 7 m/S 760 mmHg 38%
01:00 +22°C° 0 mm 7 m/S 760 mmHg 40%
02:00 +22°C° 0 mm 7 m/S 760 mmHg 42%
03:00 +21°C° 0 mm 7 m/S 759 mmHg 44%
04:00 +20°C° 0 mm 7 m/S 759 mmHg 46%
05:00 +20°C° 0 mm 7 m/S 760 mmHg 47%
06:00 +18°C° 0 mm 7 m/S 760 mmHg 48%
07:00 +21°C° 0 mm 7 m/S 760 mmHg 45%
08:00 +23°C° 0 mm 7 m/S 760 mmHg 42%
09:00 +24°C° 0 mm 7 m/S 761 mmHg 38%
10:00 +27°C° 0 mm 6 m/S 760 mmHg 35%
11:00 +30°C° 0 mm 5 m/S 760 mmHg 31%
12:00 +33°C° 0 mm 4 m/S 759 mmHg 28%
13:00 +34°C° 0 mm 4 m/S 758 mmHg 28%
14:00 +35°C° 0 mm 3 m/S 758 mmHg 28%
15:00 +36°C° 0 mm 2 m/S 757 mmHg 28%
16:00 +34°C° 0 mm 2 m/S 757 mmHg 35%
17:00 +30°C° 0 mm 2 m/S 757 mmHg 41%
18:00 +28°C° 0 mm 2 m/S 757 mmHg 48%
19:00 +27°C° 0 mm 2 m/S 758 mmHg 53%
20:00 +25°C° 0 mm 2 m/S 758 mmHg 57%
21:00 +24°C° 0 mm 2 m/S 759 mmHg 61%
22:00 +23°C° 0 mm 2 m/S 759 mmHg 59%
23:00 +23°C° 0 mm 2 m/S 759 mmHg 57%
Mehr zeigen